Location: Wanzleben
(52.0609°N, 11.4408°E)
Time: 02:53:44
(UTC+00:00)

COSMOS 2406 - Pass Details

Date: 19 January 2021
Orbit: 841 x 865 km, 71.0° (Epoch: 05 March)

Event Time Altitude Azimuth Distance (km) Brightness Sun altitude
Rises 17:34:48 0° 329° (NNW) 3,459 6.7 -17.2°
Reaches altitude 10° 17:37:35 10° 340° (NNW) 2,520 5.8 -17.7°
Maximum altitude 17:42:42 31° 42° (NE) 1,469 4.0 -18.4°
Enters shadow 17:43:36 30° 59° (ENE) 1,511 4.0 -18.6°
